{"data":{"norad_id":59557,"intl_designator":"2024-075A","name":"YAOGAN-42 02","alt_names":[],"object_type":"PAYLOAD","status":"ACTIVE","operator":null,"country":"PRC","launch_date":"2024-04-20","launch_site_code":"XICLF","launch_vehicle":null,"mission":null,"orbit_class":"UNKNOWN","rcs_meters":null,"size_class":null,"mass_kg":null,"dimensions":null,"purposes":[],"wikipedia_slug":null,"has_3d_model":false,"image_url":null,"decayed_at":null,"tle_current":{"epoch":"2026-05-25T03:58:25.065696Z","epoch_age_seconds":71111,"freshness":"FRESH","line1":"1 59557U 24075A   26145.16556789  .00008555  00000+0  35561-3 0  9999","line2":"2 59557  35.0009  54.3805 0006413 313.4599  46.5582 15.23043096116576","mean_motion":15.23043096,"eccentricity":0.0006413,"inclination_deg":35.0009,"raan_deg":54.3805,"arg_perigee_deg":313.4599,"mean_anomaly_deg":46.5582,"bstar":0.00035561,"rev_number":11657,"period_min":94.547554417987,"perigee_km":492.25911847833,"apogee_km":501.07674328267,"semimajor_km":6874.8049308805,"source":"CELESTRAK","updated_at":"2026-05-25T13:38:01.493371Z"}}}